(370841) = 2005 AL44 = 2010 CW50

Discovered at Kitt Peak on 2005-01-15 by Spacewatch.

Orbit

Orbit type: Main Belt

Note: WebGL enabled browser required.

epoch2023-09-13.0
epoch JD2460200.5
perihelion date2021-10-23.71225
perihelion JD2459511.21225
argument of perihelion (°)190.13184
ascending node (°)304.91420
inclination (°)9.56491
eccentricity0.1774275
perihelion distance (AU)2.5760884
Tisserand w.r.t. Jupiter3.2
ΔV w.r.t. Earth (km/sec)10.5
semimajor axis (AU)3.1317465
mean anomaly (°)122.58138
mean daily motion (°/day)0.17783780
aphelion distance (AU)3.687
period (years)5.54
P-vector [x]-0.70566930
P-vector [y]0.66114784
P-vector [z]0.25478299
Q-vector [x]-0.69531640
Q-vector [y]-0.57702659
Q-vector [z]-0.42845701
absolute magnitude16.21
phase slope0.15
uncertainty0
referenceMPEC 2023-X152
observations used303
oppositions11
arc length (days)6299
first opposition used2005
last opposition used2022
residual rms (arc-secs)0.81
perturbers coarse indicatorM-v
perturbers precise indicator003Ek
first observation date used2005-01-06.0
last observation date used2022-04-06.0
computer nameMPCLINUX
JD of orbit computation2456937.339260
perihelion JD uncertainty (days)2.0675E-04
argument of perihelion uncertainty (°)4.8100E-05
ascending node uncertainty (°)3.6485E-05
inclination uncertainty (°)7.3875E-06
eccentricity uncertainty 7.6794E-08
perihelion distance uncertainty (AU)2.3094E-07
Minimum Orbit Intersection Distances (in AU)
for orbit epoch: 2460200.5, reference: E2023-XF2
Mercury2.2396
Venus1.86051
Earth1.58955
Mars0.92992
Jupiter1.38427
Saturn6.12403
Uranus15.7872
Neptune26.3811

Observations

309 total observations over interval: 2005 01 06.36569 – 2022 04 06.172511
These data are available for download (format description).

Date (UT) J2000 RA J2000 Dec Magn Location Ref
2005 01 06.36569 08 49 22.27 +18 56 55.4 20.0   704 – Lincoln Laboratory ETS, New Mexico MPS 155944
2005 01 06.38056 08 49 21.64 +18 56 54.1 20.2   704 – Lincoln Laboratory ETS, New Mexico MPS 155944
2005 01 06.39397 08 49 21.04 +18 56 52.6 20.3   704 – Lincoln Laboratory ETS, New Mexico MPS 155944
2005 01 06.40726 08 49 20.45 +18 56 52.1 20.2   704 – Lincoln Laboratory ETS, New Mexico MPS 155944
2005 01 15.36404 08 42 02.18 +18 49 59.9 19.6   704 – Lincoln Laboratory ETS, New Mexico MPS 124841
2005 01 15.37814 08 42 01.42 +18 49 59.6 19.4   704 – Lincoln Laboratory ETS, New Mexico MPS 124841
2005 01 15.38581 08 42 01.02 +18 49 59.4 19.6 V 691 – Steward Observatory, Kitt Peak-Spacewatch MPS 124841
2005 01 15.39134 08 42 00.71 +18 49 59.6 19.9   704 – Lincoln Laboratory ETS, New Mexico MPS 124841
2005 01 15.40459 08 41 59.99 +18 49 58.1 19.9   704 – Lincoln Laboratory ETS, New Mexico MPS 124841
2005 01 15.41129 08 41 59.61 +18 49 58.2 19.7 V 691 – Steward Observatory, Kitt Peak-Spacewatch MPS 124841
2005 01 15.43777 08 41 58.15 +18 49 57.0 19.8 V 691 – Steward Observatory, Kitt Peak-Spacewatch MPS 124841
2005 01 16.34075 08 41 09.99 +18 49 20.5 19.3   704 – Lincoln Laboratory ETS, New Mexico MPS 124841
2005 01 16.35383 08 41 09.31 +18 49 19.9 20.5   704 – Lincoln Laboratory ETS, New Mexico MPS 124841
2005 01 16.36685 08 41 08.52 +18 49 19.0 19.9   704 – Lincoln Laboratory ETS, New Mexico MPS 124841
2005 01 16.38037 08 41 07.77 +18 49 19.6 20.0   704 – Lincoln Laboratory ETS, New Mexico MPS 124841
2005 01 16.39339 08 41 07.08 +18 49 18.9 19.5   704 – Lincoln Laboratory ETS, New Mexico MPS 124841
2005 01 17.34575 08 40 15.54 +18 48 40.5 19.4   704 – Lincoln Laboratory ETS, New Mexico MPS 124841
2005 01 17.35516 08 40 14.97 +18 48 39.2 19.7   704 – Lincoln Laboratory ETS, New Mexico MPS 124841
2005 01 17.36039 08 40 14.74 +18 48 39.3 19.6   704 – Lincoln Laboratory ETS, New Mexico MPS 124841
2005 01 17.38303 08 40 13.45 +18 48 38.5 19.7   704 – Lincoln Laboratory ETS, New Mexico MPS 124841
2005 01 17.38740 08 40 13.22 +18 48 38.1 19.5   704 – Lincoln Laboratory ETS, New Mexico MPS 124841
2005 01 17.39593 08 40 12.71 +18 48 39.0 19.9   704 – Lincoln Laboratory ETS, New Mexico MPS 124841
2005 01 17.40038 08 40 12.52 +18 48 37.9 19.8   704 – Lincoln Laboratory ETS, New Mexico MPS 124841
2005 01 19.24859 08 38 31.06 +18 47 23.4 19.6 V 691 – Steward Observatory, Kitt Peak-Spacewatch MPS 124841
2005 01 19.27451 08 38 29.56 +18 47 22.4 19.7 V 691 – Steward Observatory, Kitt Peak-Spacewatch MPS 124841
2005 01 19.29996 08 38 28.11 +18 47 21.5 19.7 V 691 – Steward Observatory, Kitt Peak-Spacewatch MPS 124841
2005 02 02.29648 08 25 16.40 +18 36 46.7 19.9   704 – Lincoln Laboratory ETS, New Mexico MPS 155944
2005 02 02.30930 08 25 15.71 +18 36 44.2 20.2   704 – Lincoln Laboratory ETS, New Mexico MPS 155944
2005 02 02.32210 08 25 14.88 +18 36 41.9 19.8   704 – Lincoln Laboratory ETS, New Mexico MPS 155944
2005 02 02.33483 08 25 14.11 +18 36 39.4 20.1   704 – Lincoln Laboratory ETS, New Mexico MPS 155944
2008 10 29.18964 22 47 49.41 +02 37 23.2 21.7 V G96 – Mt. Lemmon Survey MPS 313163
2008 10 29.19719 22 47 49.41 +02 37 21.9 21.3 V G96 – Mt. Lemmon Survey MPS 313163
2008 10 29.20483 22 47 49.27 +02 37 20.9 21.0 V G96 – Mt. Lemmon Survey MPS 313163
2008 10 29.21243 22 47 49.20 +02 37 19.6 21.6 V G96 – Mt. Lemmon Survey MPS 313163
2010 02 13.50754 03 47 09.47 +27 29 51.6   C51 – WISE MPS 313773
2010 02 13.507544 03 47 09.49 +27 29 54.2   C51 – WISE MPS 313773
2010 02 13.639848 03 47 16.14 +27 29 39.7   C51 – WISE MPS 330775
2010 02 13.772152 03 47 22.79 +27 29 25.5   C51 – WISE MPS 330775
2010 02 13.904583 03 47 29.54 +27 29 11.5   C51 – WISE MPS 313773
2010 02 13.970672 03 47 32.90 +27 29 04.5   C51 – WISE MPS 330775
2010 02 14.036888 03 47 36.25 +27 28 57.7   C51 – WISE MPS 313773
2010 02 14.102977 03 47 39.66 +27 28 50.3   C51 – WISE MPS 313773
2010 02 14.103104 03 47 39.67 +27 28 49.6   C51 – WISE MPS 371991
2010 02 14.169192 03 47 43.02 +27 28 43.8   C51 – WISE MPS 313773
2010 02 14.23541 03 47 46.44 +27 28 36.2   C51 – WISE MPS 313773
2010 02 14.301497 03 47 49.74 +27 28 30.5   C51 – WISE MPS 313773
2010 02 14.367713 03 47 53.22 +27 28 23.0   C51 – WISE MPS 330775
2010 02 14.500017 03 48 00.04 +27 28 09.6   C51 – WISE MPS 313773
2010 02 14.632321 03 48 06.86 +27 27 55.8   C51 – WISE MPS 313773
2010 02 14.764625 03 48 13.69 +27 27 42.9   C51 – WISE MPS 313773
2010 02 14.764752 03 48 13.72 +27 27 42.5   C51 – WISE MPS 313773
2011 02 18.18979 12 01 36.73 -11 31 21.2 19.3 Y W91 – VHS-VISTA, Cerro Paranal MPS 678798
2011 02 18.19106 12 01 36.70 -11 31 21.5 19.3 Y W91 – VHS-VISTA, Cerro Paranal MPS 678798
2011 02 18.19395 12 01 36.60 -11 31 21.7 19.0 J W91 – VHS-VISTA, Cerro Paranal MPS 678798
2011 02 18.19526 12 01 36.56 -11 31 21.7 18.9 J W91 – VHS-VISTA, Cerro Paranal MPS 678798
2011 02 18.20265 12 01 36.31 -11 31 22.8 18.8 H W91 – VHS-VISTA, Cerro Paranal MPS 678798
2011 02 18.20404 12 01 36.26 -11 31 22.9 18.9 H W91 – VHS-VISTA, Cerro Paranal MPS 678798
2011 03 25.35428 11 35 07.292 -10 53 51.91 19.9 r F51 – Pan-STARRS 1, Haleakala MPS 378613
2011 03 25.36492 11 35 06.756 -10 53 49.57 19.8 r F51 – Pan-STARRS 1, Haleakala MPS 378613
2011 03 25.37702 11 35 06.155 -10 53 46.98 19.9 i F51 – Pan-STARRS 1, Haleakala MPS 378613
2011 03 25.38866 11 35 05.576 -10 53 44.44 19.9 i F51 – Pan-STARRS 1, Haleakala MPS 378613
2011 04 01.24221 11 29 53.30 -10 27 14.4 20.6 V 703 – Catalina Sky Survey MPS 375524
2011 04 01.24904 11 29 52.90 -10 27 13.7 20.3 V 703 – Catalina Sky Survey MPS 375524
2011 04 01.25588 11 29 52.62 -10 27 10.5 20.3 V 703 – Catalina Sky Survey MPS 375524
2011 04 01.26277 11 29 52.40 -10 27 10.6 19.9 V 703 – Catalina Sky Survey MPS 375524
2011 05 09.13631 11 17 51.39 -08 15 52.8 20.4 V G96 – Mt. Lemmon Survey MPS 382135
2011 05 09.14254 11 17 51.43 -08 15 51.5 20.6 V G96 – Mt. Lemmon Survey MPS 382135
2011 05 09.14873 11 17 51.50 -08 15 50.7 20.4 V G96 – Mt. Lemmon Survey MPS 382135
2011 05 09.15497 11 17 51.54 -08 15 50.0 20.5 V G96 – Mt. Lemmon Survey MPS 382135
2013 07 15.47613 21 48 16.820 -10 26 14.20 21.9 w F51 – Pan-STARRS 1, Haleakala MPS 472089
2013 07 15.49045 21 48 16.335 -10 26 14.71 21.7 w F51 – Pan-STARRS 1, Haleakala MPS 472089
2013 07 15.50476 21 48 15.851 -10 26 15.34 21.5 w F51 – Pan-STARRS 1, Haleakala MPS 472089
2013 08 30.33252 21 15 28.342 -11 43 22.33 21.3 w F51 – Pan-STARRS 1, Haleakala MPS 474913
2013 08 30.34653 21 15 27.756 -11 43 24.10 21.2 w F51 – Pan-STARRS 1, Haleakala MPS 474913
2013 08 30.36053 21 15 27.161 -11 43 25.81 21.6 w F51 – Pan-STARRS 1, Haleakala MPS 474913
2013 08 30.37454 21 15 26.575 -11 43 27.28 21.3 w F51 – Pan-STARRS 1, Haleakala MPS 474913
2014 08 29.41559 01 18 24.63 +20 29 26.6 21.0 V G96 – Mt. Lemmon Survey MPS 529672
2014 08 29.42016 01 18 24.55 +20 29 27.2 21.3 V G96 – Mt. Lemmon Survey MPS 529672
2014 08 29.42477 01 18 24.44 +20 29 27.4 21.6 V G96 – Mt. Lemmon Survey MPS 529672
2014 08 29.42937 01 18 24.36 +20 29 27.7 21.2 V G96 – Mt. Lemmon Survey MPS 529672
2014 10 01.53502 00 59 36.290 +20 23 34.74 21.0 w F51 – Pan-STARRS 1, Haleakala MPS 538807
2014 10 01.54775 00 59 35.669 +20 23 32.62 21.1 w F51 – Pan-STARRS 1, Haleakala MPS 538807
2014 10 01.56047 00 59 35.052 +20 23 30.50 20.9 w F51 – Pan-STARRS 1, Haleakala MPS 538807
2014 10 01.57319 00 59 34.453 +20 23 28.34 20.8 w F51 – Pan-STARRS 1, Haleakala MPS 538807
2014 10 02.31401 00 58 59.936 +20 21 24.21 20.9 r F51 – Pan-STARRS 1, Haleakala MPS 538807
2014 10 02.32592 00 58 59.366 +20 21 22.23 21.0 r F51 – Pan-STARRS 1, Haleakala MPS 538807
2014 10 02.33779 00 58 58.773 +20 21 20.38 20.8 r F51 – Pan-STARRS 1, Haleakala MPS 538807
2014 10 02.34968 00 58 58.204 +20 21 18.42 20.7 r F51 – Pan-STARRS 1, Haleakala MPS 538807
2014 11 22.15401 00 27 34.33 +16 24 57.7 21.9 V G96 – Mt. Lemmon Survey MPS 549549
2014 11 22.16009 00 27 34.35 +16 24 54.5 21.5 V G96 – Mt. Lemmon Survey MPS 549549
2014 11 22.16618 00 27 34.33 +16 24 53.3 21.7 V G96 – Mt. Lemmon Survey MPS 549549
2014 11 22.17227 00 27 34.32 +16 24 50.0 22.0 V G96 – Mt. Lemmon Survey MPS 549549
